PBO Station Position Time Series. Reference Frame : NAM14
Format Version,1.1.1
4-character ID,P313
Station name,BuchaRidgeCN2006
Begin Date, 2006-06-29
End Date, 2023-06-26
Release Date, 2023-06-27
Reference position, 39.5542887926 North Latitude, -123.5645462161 East Longitude, 651.76799 meters elevation,
Date, North (mm), East (mm), Vertical (mm), North Std. Deviation (mm), East Std. Deviation (mm),              Vertical Std. Deviation (mm), Quality,
2006-06-29,0.00, 0.00, 0.00, 2.08, 1.62, 7.49, repro,
2006-06-30,2.03, -0.46, -12.40, 2.11, 1.62, 7.55, repro,
2006-07-01,2.59, -1.22, -4.89, 2.12, 1.62, 7.57, repro,
2006-07-02,1.52, -2.42, -5.10, 2.17, 1.72, 7.96, repro,
2006-07-03,2.03, -0.83, -10.90, 2.11, 1.62, 7.53, repro,
2006-07-04,1.90, -0.50, -9.40, 2.17, 1.65, 7.66, repro,
2006-07-05,2.33, -1.00, -9.84, 2.12, 1.62, 7.54, repro,
2006-07-06,1.21, -0.55, -15.98, 2.18, 1.66, 7.77, repro,
2006-07-07,0.60, -1.27, -8.00, 2.12, 1.62, 7.60, repro,
2006-07-08,1.13, -1.24, -4.34, 2.13, 1.62, 7.61, repro,
2006-07-09,1.54, -0.86, -6.01, 2.10, 1.60, 7.47, repro,
2006-07-10,2.43, -0.32, -10.80, 2.12, 1.62, 7.55, repro,
2006-07-11,2.55, -1.13, -2.81, 2.11, 1.61, 7.57, repro,
2006-07-12,2.02, -1.01, -7.95, 2.12, 1.62, 7.63, repro,
2006-07-13,1.20, -1.39, -5.12, 2.11, 1.63, 7.62, repro,
2006-07-14,0.70, -0.17, -3.30, 2.12, 1.61, 7.57, repro,
2006-07-15,1.31, -0.63, -4.50, 2.10, 1.61, 7.57, repro,
2006-07-16,1.63, -0.84, -0.96, 2.13, 1.63, 7.67, repro,
2006-07-17,1.01, -0.41, -4.49, 2.14, 1.65, 7.78, repro,
2006-07-18,0.80, -1.75, -1.02, 2.11, 1.62, 7.53, repro,
2006-07-19,2.48, -0.51, -9.00, 2.06, 1.58, 7.32, repro,
2006-07-20,2.08, -0.12, -8.06, 2.11, 1.63, 7.63, repro,
2006-07-21,4.18, 1.23, -6.01, 2.05, 1.60, 7.39, repro,
2006-07-22,3.34, -0.23, -3.90, 2.05, 1.59, 7.34, repro,
2006-07-23,3.57, -0.13, -6.82, 2.06, 1.58, 7.28, repro,
2006-07-24,0.99, -2.89, -1.35, 2.05, 1.59, 7.32, repro,
2006-07-25,3.57, -2.27, -2.76, 2.06, 1.58, 7.35, repro,
2006-07-26,4.39, 0.07, -1.80, 2.07, 1.59, 7.41, repro,
2006-07-27,2.73, -1.20, -3.65, 2.05, 1.58, 7.30, repro,
2006-07-28,1.82, -0.88, -3.12, 2.04, 1.57, 7.23, repro,
2006-07-29,2.40, -2.56, -6.10, 2.03, 1.57, 7.26, repro,
2006-07-30,2.16, -1.40, -3.30, 2.09, 1.63, 7.47, repro,
2006-07-31,3.01, -0.97, -2.83, 2.04, 1.57, 7.26, repro,
2006-08-01,3.16, -1.78, -5.34, 2.05, 1.58, 7.35, repro,
2006-08-02,1.94, -1.03, -3.86, 2.08, 1.62, 7.67, repro,
2006-08-03,1.63, -1.37, -2.08, 2.12, 1.69, 7.77, repro,
2006-08-04,2.80, -0.62, -2.75, 2.14, 1.65, 7.70, repro,
2006-08-05,1.53, -2.35, -4.14, 2.14, 1.68, 7.80, repro,
2006-08-06,4.62, -0.12, -7.29, 2.11, 1.64, 7.72, repro,
2006-08-07,2.02, -1.01, -5.09, 2.11, 1.65, 7.76, repro,
2006-08-08,1.65, -0.10, -4.24, 2.07, 1.58, 7.36, repro,
2006-08-09,1.94, -1.01, -3.91, 2.08, 1.62, 7.52, repro,
2006-08-10,1.93, -0.74, -1.91, 2.07, 1.60, 7.41, repro,
2006-08-11,2.60, -0.18, -5.85, 2.08, 1.62, 7.46, repro,
2006-08-12,2.93, -0.67, -3.98, 2.07, 1.59, 7.39, repro,
2006-08-13,0.69, -1.38, 3.37, 2.09, 1.63, 7.49, repro,
2006-08-14,2.39, -1.74, -1.68, 2.09, 1.63, 7.52, repro,
2006-08-15,3.05, -1.71, -2.01, 2.17, 1.65, 7.58, repro,
2006-08-16,0.73, 0.27, -6.25, 2.08, 1.63, 7.42, repro,
2006-08-17,2.43, -0.43, -8.55, 2.06, 1.58, 7.32, repro,
2006-08-18,2.13, -0.81, -2.06, 2.14, 1.69, 7.70, repro,
2006-08-19,3.17, -0.57, -7.86, 2.04, 1.58, 7.31, repro,
2006-08-20,3.19, -1.24, 3.92, 2.04, 1.59, 7.30, repro,
2006-08-21,2.29, -0.69, -1.21, 2.05, 1.61, 7.34, repro,
2006-08-22,2.38, -0.97, -4.17, 2.05, 1.60, 7.35, repro,
2006-08-23,1.81, -0.50, 0.63, 2.06, 1.62, 7.42, repro,
2006-08-24,2.83, -1.07, -0.60, 2.09, 1.65, 7.60, repro,
2006-08-25,2.38, -1.00, 4.74, 2.08, 1.65, 7.65, repro,
2006-08-26,1.76, -0.90, 3.90, 2.17, 1.76, 8.02, repro,
2006-08-27,2.57, 0.59, -1.49, 2.12, 1.71, 7.83, repro,
2006-08-28,2.43, -1.09, 1.94, 2.14, 1.71, 7.93, repro,
2006-08-29,3.20, -0.23, -7.47, 2.14, 1.71, 7.90, repro,
2006-08-30,1.59, -1.13, 2.72, 2.13, 1.70, 7.85, repro,
2006-08-31,0.56, -0.63, 0.67, 2.11, 1.70, 7.81, repro,
2006-09-01,1.77, -0.95, -2.74, 2.19, 1.74, 8.03, repro,
2006-09-02,2.65, -1.48, -3.87, 2.13, 1.71, 7.88, repro,
2006-09-03,2.12, -1.34, -6.32, 2.14, 1.72, 7.89, repro,
2006-09-04,1.97, -0.52, -7.40, 2.21, 1.73, 8.03, repro,
2006-09-05,2.38, 0.57, -10.08, 2.18, 1.72, 7.97, repro,
2006-09-06,2.86, 0.41, -4.30, 2.11, 1.70, 7.80, repro,
2006-09-07,0.86, -1.07, 10.13, 2.18, 1.75, 8.12, repro,
2006-09-08,3.41, -0.74, 1.10, 2.18, 1.75, 8.11, repro,
2006-09-09,1.71, -0.28, -5.03, 2.11, 1.67, 7.62, repro,
2006-09-10,1.67, -0.50, -3.03, 2.10, 1.65, 7.56, repro,
2006-09-11,3.35, -1.64, -1.27, 2.08, 1.65, 7.48, repro,
2006-09-12,1.67, -1.23, -1.91, 2.10, 1.67, 7.58, repro,
2006-09-13,2.49, -0.53, 4.13, 2.10, 1.66, 7.57, repro,
2006-09-14,1.49, -0.66, 2.16, 2.20, 1.76, 7.93, repro,
2006-09-15,2.95, -1.85, -1.15, 2.13, 1.64, 7.50, repro,
2006-09-16,0.71, -2.44, 2.27, 2.06, 1.61, 7.39, repro,
2006-09-17,2.77, -0.17, 1.49, 2.06, 1.61, 7.40, repro,
2006-09-18,0.97, -0.61, 9.10, 2.07, 1.63, 7.47, repro,
2006-09-19,1.42, -0.94, 0.94, 2.06, 1.61, 7.37, repro,
2006-09-20,0.62, -1.12, -7.74, 2.07, 1.61, 7.46, repro,
2006-09-21,0.47, -1.99, 10.46, 2.09, 1.65, 7.56, repro,
2006-09-22,0.47, -1.80, 12.76, 2.13, 1.69, 7.72, repro,
2006-09-23,0.85, -1.81, 6.37, 2.09, 1.65, 7.51, repro,
2006-09-24,3.28, -1.32, 0.28, 2.19, 1.68, 7.66, repro,
2006-09-25,3.16, -0.75, -0.73, 2.14, 1.65, 7.54, repro,
2006-09-26,2.30, -1.70, -3.53, 2.14, 1.63, 7.47, repro,
2006-09-27,1.09, -2.42, -0.45, 2.15, 1.66, 7.61, repro,
2006-09-28,2.17, -1.83, -0.68, 2.13, 1.65, 7.51, repro,
2006-09-29,1.59, -2.02, 8.40, 2.13, 1.65, 7.53, repro,
2006-09-30,3.08, -1.21, 5.87, 2.13, 1.68, 7.76, repro,
2006-10-01,3.38, -1.93, 4.07, 2.13, 1.69, 7.79, repro,
2006-10-02,1.36, -1.40, -0.51, 2.16, 1.70, 7.67, repro,
2006-10-03,2.32, -2.03, -3.34, 2.25, 1.77, 7.94, repro,
2006-10-04,1.41, -1.84, 4.10, 2.13, 1.64, 7.54, repro,
2006-10-05,4.01, -2.17, 5.39, 2.13, 1.68, 7.59, repro,
2006-10-06,2.42, -1.70, 1.05, 2.12, 1.66, 7.61, repro,
2006-10-07,2.81, -1.61, -8.66, 2.17, 1.71, 7.90, repro,
2006-10-08,2.04, -1.60, -2.78, 2.11, 1.67, 7.62, repro,
2006-10-09,2.24, -1.50, -1.62, 2.12, 1.68, 7.65, repro,
2006-10-10,2.07, -2.13, 0.28, 2.09, 1.65, 7.58, repro,
2006-10-11,2.17, -0.81, 1.41, 2.10, 1.66, 7.67, repro,
2006-10-12,2.24, -0.61, 3.40, 2.14, 1.65, 7.58, repro,
2006-10-13,2.47, -0.72, 4.71, 2.11, 1.63, 7.56, repro,
2006-10-14,2.06, -1.86, -0.37, 2.08, 1.66, 7.59, repro,
2006-10-15,2.34, -1.46, 8.03, 2.04, 1.64, 7.48, repro,
2006-10-16,2.62, -0.97, 18.88, 2.08, 1.63, 7.47, repro,
2006-10-17,1.07, -1.10, 8.39, 2.10, 1.67, 7.83, repro,
2006-10-18,2.06, -0.65, 1.23, 2.07, 1.66, 7.63, repro,
2006-10-19,3.35, -1.01, -0.02, 2.27, 1.72, 8.22, repro,
2006-10-20,1.95, -0.87, 0.84, 2.34, 1.88, 9.07, repro,
2006-10-21,0.64, -1.56, 1.59, 2.15, 1.68, 8.03, repro,
2006-10-22,2.30, -1.37, -3.25, 2.09, 1.68, 7.76, repro,
2006-10-23,3.22, -1.28, -1.18, 2.10, 1.72, 7.78, repro,
2006-10-24,2.92, -0.49, -0.55, 2.16, 1.69, 7.80, repro,
2006-10-25,0.33, -1.60, 10.19, 2.16, 1.72, 7.88, repro,
2006-10-26,2.54, -1.27, 6.85, 2.07, 1.69, 7.71, repro,
2006-10-27,2.48, -0.79, 0.73, 2.05, 1.66, 7.59, repro,
2006-10-28,2.51, -0.43, -4.86, 2.13, 1.65, 7.87, repro,
2006-10-29,0.99, -0.98, 1.41, 2.06, 1.64, 7.57, repro,
2006-10-30,1.44, -1.02, -5.53, 2.02, 1.61, 7.42, repro,
2006-10-31,1.03, -1.05, 6.52, 2.07, 1.68, 7.65, repro,
2006-11-01,1.78, -0.69, -2.76, 2.13, 1.76, 7.96, repro,
2006-11-02,0.15, -2.69, 5.22, 2.09, 1.66, 7.75, repro,
2006-11-03,3.09, -0.27, -2.82, 2.09, 1.69, 7.75, repro,
2006-11-04,1.81, -0.93, -4.08, 2.14, 1.69, 7.80, repro,
2006-11-05,1.50, -1.49, 1.49, 2.12, 1.67, 7.69, repro,
2006-11-06,1.64, -1.64, -2.45, 2.03, 1.62, 7.49, repro,
2006-11-07,2.70, -2.21, 1.73, 2.16, 1.70, 7.89, repro,
2006-11-08,0.44, -0.09, 7.06, 2.18, 1.70, 7.98, repro,
2006-11-09,2.71, -1.59, 3.77, 2.21, 1.76, 8.02, repro,
2006-11-10,2.73, -1.16, -2.39, 2.10, 1.64, 7.55, repro,
2006-11-11,1.47, 0.13, -0.15, 2.21, 1.79, 8.11, repro,
2006-11-12,0.75, -0.79, 5.10, 2.20, 1.75, 7.94, repro,
2006-11-13,2.29, -0.61, 3.88, 2.19, 1.72, 7.88, repro,
2006-11-14,2.26, -2.12, 1.08, 2.03, 1.61, 7.38, repro,
2006-11-15,2.73, -0.32, -2.98, 2.03, 1.60, 7.36, repro,
2006-11-16,2.64, 0.14, 0.46, 2.01, 1.60, 7.28, repro,
2006-11-17,1.60, -0.64, 0.15, 2.01, 1.60, 7.27, repro,
2006-11-18,2.86, -1.17, -6.88, 2.04, 1.61, 7.42, repro,
2006-11-19,3.20, -1.75, -8.05, 2.04, 1.62, 7.43, repro,
2006-11-20,1.05, 0.88, -1.74, 2.03, 1.62, 7.39, repro,
2006-11-21,3.06, -1.59, 3.34, 2.01, 1.61, 7.29, repro,
2006-11-22,1.90, -0.00, -4.89, 2.02, 1.61, 7.30, repro,
2006-11-23,0.83, -0.89, -4.74, 2.04, 1.64, 7.56, repro,
2006-11-24,2.35, -2.28, -6.51, 2.14, 1.71, 7.96, repro,
2006-11-25,2.26, -1.77, -6.42, 2.06, 1.62, 7.42, repro,
2006-11-26,1.64, -1.20, -1.15, 2.05, 1.62, 7.37, repro,
2006-11-27,3.31, -1.12, -1.55, 2.05, 1.62, 7.34, repro,
2006-11-28,-0.14, -2.01, 8.30, 2.05, 1.67, 7.50, repro,
2006-11-29,0.59, -0.83, -5.76, 2.02, 1.62, 7.40, repro,
2006-11-30,3.63, -0.24, -5.63, 2.02, 1.62, 7.39, repro,
2006-12-01,3.55, -0.62, -11.15, 2.02, 1.62, 7.33, repro,
2006-12-02,2.84, -0.75, -12.48, 2.03, 1.61, 7.32, repro,
2006-12-03,3.14, 0.37, -6.20, 2.00, 1.61, 7.27, repro,
2006-12-04,2.75, -0.85, -14.22, 2.06, 1.63, 7.45, repro,
2006-12-05,2.28, -1.38, -7.51, 2.05, 1.67, 7.49, repro,
2006-12-06,2.25, -0.84, -10.36, 2.06, 1.69, 7.53, repro,
2006-12-07,3.02, -0.70, -6.34, 2.05, 1.69, 7.57, repro,
2006-12-08,3.50, -1.20, -3.95, 2.04, 1.71, 7.58, repro,
2006-12-09,0.67, -0.24, -10.97, 2.12, 1.79, 7.78, repro,
2006-12-10,2.95, -1.15, -2.05, 2.10, 1.72, 7.71, repro,
2006-12-11,1.83, -1.02, -6.29, 2.03, 1.64, 7.38, repro,
2006-12-12,3.45, 0.09, -7.61, 2.11, 1.72, 7.70, repro,
2006-12-13,3.25, 0.31, -12.29, 2.07, 1.77, 7.67, repro,
2006-12-14,4.13, 1.34, -5.55, 2.00, 1.65, 7.41, repro,
2006-12-15,1.84, -2.25, -4.67, 2.14, 1.77, 7.95, repro,
2006-12-16,3.41, -1.98, -5.50, 2.10, 1.71, 7.58, repro,
2006-12-17,0.70, -0.91, -6.89, 2.14, 1.87, 8.10, repro,
2006-12-18,3.36, 0.93, -11.65, 2.21, 1.92, 8.37, repro,
2006-12-19,3.56, 0.29, -9.12, 2.13, 1.88, 8.12, repro,
2006-12-20,2.17, -0.16, -8.94, 2.17, 1.87, 8.06, repro,
2006-12-21,2.66, -1.13, -6.35, 2.03, 1.75, 7.60, repro,
2006-12-22,1.39, -1.85, -4.08, 2.14, 1.89, 8.17, repro,
2006-12-23,3.52, 0.01, -15.71, 2.12, 1.83, 8.01, repro,
2006-12-24,2.61, -0.97, -11.95, 2.02, 1.65, 7.38, repro,
2006-12-25,0.43, -0.23, -13.59, 2.05, 1.71, 7.56, repro,
2006-12-26,1.15, -0.79, -3.73, 2.09, 1.79, 7.96, repro,
2006-12-27,3.31, -4.00, -1.98, 2.11, 1.76, 7.91, repro,
2006-12-28,0.61, -0.93, -4.18, 2.38, 2.17, 9.45, repro,
2006-12-29,2.39, -1.16, -13.82, 2.08, 1.75, 7.79, repro,
2006-12-30,1.79, -0.68, -5.41, 2.09, 1.79, 7.89, repro,
2006-12-31,1.98, -0.86, -8.46, 2.22, 1.90, 8.29, repro,
2007-01-01,3.45, -1.80, -12.34, 2.21, 1.91, 8.25, repro,
2007-01-02,2.07, -0.26, -0.58, 2.17, 1.92, 8.30, repro,
2007-01-03,3.14, -1.69, -7.82, 2.07, 1.77, 7.90, repro,
2007-01-04,2.32, -1.82, -5.26, 2.01, 1.66, 7.50, repro,
2007-01-05,1.70, -2.22, -7.81, 2.03, 1.71, 7.59, repro,
2007-01-06,1.93, -0.52, -13.35, 2.09, 1.82, 7.88, repro,
2007-01-07,1.08, -2.09, -13.44, 2.05, 1.66, 7.51, repro,
2007-01-08,0.98, -0.57, -9.81, 2.06, 1.69, 7.63, repro,
2007-01-09,1.29, -1.10, -9.72, 2.06, 1.65, 7.46, repro,
2007-01-10,1.43, -0.95, -4.35, 2.11, 1.69, 7.63, repro,
2007-01-11,1.76, -1.91, -6.79, 2.10, 1.65, 7.54, repro,
2007-01-12,1.93, -2.66, -10.21, 2.01, 1.60, 7.28, repro,
2007-01-13,1.75, -0.88, -12.74, 1.96, 1.59, 7.11, repro,
2007-01-14,1.85, -0.96, -13.52, 2.03, 1.63, 7.31, repro,
2007-01-15,1.17, -0.83, -14.31, 1.98, 1.59, 7.16, repro,
2007-01-16,2.54, -1.84, -14.29, 2.02, 1.61, 7.30, repro,
2007-01-17,2.59, -1.80, -10.12, 2.00, 1.63, 7.31, repro,
2007-01-18,2.18, -2.83, -10.44, 2.05, 1.67, 7.42, repro,
2007-01-19,2.95, -0.61, -8.09, 2.13, 1.72, 7.84, repro,
2007-01-20,0.01, -0.75, -12.91, 2.04, 1.61, 7.43, repro,
2007-01-21,1.27, 0.19, -6.41, 1.99, 1.59, 7.16, repro,
2007-01-22,1.97, -0.69, -8.11, 1.98, 1.59, 7.16, repro,
2007-01-23,3.06, -0.97, -11.47, 2.06, 1.68, 7.43, repro,
2007-01-24,1.15, -0.90, -12.86, 2.04, 1.63, 7.26, repro,
2007-01-25,1.61, -1.22, -13.56, 2.04, 1.64, 7.29, repro,
2007-01-26,1.71, -0.64, -15.01, 1.99, 1.59, 7.12, repro,
2007-01-27,1.21, -1.85, -11.84, 1.97, 1.59, 7.11, repro,
2007-01-28,0.95, -0.41, -9.13, 2.01, 1.63, 7.21, repro,
2007-01-29,1.64, -1.53, -11.37, 1.97, 1.57, 7.02, repro,
2007-01-30,1.66, -1.01, -8.01, 1.97, 1.58, 7.02, repro,
2007-01-31,0.23, -1.13, -6.83, 1.98, 1.59, 7.11, repro,
2007-02-01,1.36, -0.49, -5.64, 2.00, 1.63, 7.24, repro,
2007-02-02,1.03, -0.62, -9.40, 2.09, 1.72, 7.61, repro,
2007-02-03,1.43, -0.10, -8.76, 1.99, 1.59, 7.17, repro,
2007-02-04,1.84, 0.74, -12.45, 1.99, 1.62, 7.18, repro,
2007-02-05,1.90, -0.24, -13.91, 1.98, 1.58, 7.06, repro,
2007-02-06,1.70, -0.57, -16.51, 2.03, 1.61, 7.24, repro,
2007-02-07,2.23, -1.26, -5.07, 2.01, 1.65, 7.26, repro,
2007-02-08,2.48, -0.94, -9.25, 2.10, 1.69, 7.51, repro,
2007-02-09,1.31, -0.94, -9.77, 2.03, 1.69, 7.41, repro,
2007-02-10,2.52, 1.86, -9.60, 1.99, 1.59, 7.14, repro,
2007-02-11,2.61, -1.18, -6.96, 1.98, 1.60, 7.17, repro,
2007-02-12,0.92, -0.49, -12.04, 1.97, 1.58, 7.04, repro,
2007-02-13,0.92, -0.62, -12.70, 1.96, 1.59, 7.05, repro,
2007-02-14,1.47, 0.17, -13.31, 1.98, 1.57, 7.02, repro,
2007-02-15,0.74, 1.47, -14.60, 2.02, 1.63, 7.28, repro,
2007-02-16,2.20, 0.18, -10.08, 1.98, 1.60, 7.14, repro,
2007-02-17,0.12, 0.24, -2.34, 2.02, 1.64, 7.26, repro,
2007-02-18,0.69, -0.04, -4.67, 1.97, 1.60, 7.17, repro,
2007-02-19,0.08, -1.30, -6.86, 1.97, 1.58, 7.09, repro,
2007-02-20,0.78, -0.20, -6.26, 2.04, 1.64, 7.34, repro,
2007-02-21,0.46, -0.45, -3.43, 1.98, 1.59, 7.16, repro,
2007-02-22,0.62, -0.89, -6.26, 1.98, 1.61, 7.20, repro,
2007-02-23,0.54, -0.04, -7.43, 2.07, 1.68, 7.53, repro,
2007-02-24,0.29, -1.24, -4.37, 1.98, 1.59, 7.14, repro,
2007-02-25,0.89, -1.42, -5.07, 1.98, 1.59, 7.15, repro,
2007-02-26,-0.47, -1.90, -5.43, 1.97, 1.58, 7.09, repro,
2007-02-27,-0.06, -0.30, -7.02, 2.00, 1.64, 7.27, repro,
2007-02-28,-0.14, -1.11, 0.63, 1.98, 1.64, 7.27, repro,
2007-03-01,0.10, -1.40, -7.94, 2.07, 1.71, 7.56, repro,
2007-03-02,-0.05, 0.55, -10.53, 2.04, 1.65, 7.37, repro,
2007-03-03,-0.20, -0.64, -15.34, 1.98, 1.61, 7.17, repro,
2007-03-04,-0.25, -0.05, -10.65, 2.02, 1.63, 7.30, repro,
2007-03-05,-0.67, -1.44, -7.68, 1.98, 1.62, 7.20, repro,
2007-03-06,0.37, -1.18, -5.99, 2.00, 1.63, 7.26, repro,
2007-03-07,-0.32, -1.95, -3.57, 2.02, 1.64, 7.34, repro,
2007-03-08,-0.92, -1.71, -4.27, 2.00, 1.62, 7.23, repro,
2007-03-09,-0.61, -0.87, -3.99, 2.03, 1.68, 7.43, repro,
2007-03-10,0.89, -0.68, -6.88, 2.10, 1.67, 7.56, repro,
2007-03-11,0.29, -0.87, -11.76, 1.99, 1.62, 7.20, repro,
2007-03-12,0.95, -0.82, -10.75, 2.00, 1.61, 7.21, repro,
2007-03-13,-1.01, -1.79, -4.85, 1.98, 1.59, 7.17, repro,
2007-03-14,-0.75, 0.73, -7.79, 1.98, 1.58, 7.08, repro,
2007-03-15,0.69, -0.41, -7.20, 2.05, 1.64, 7.34, repro,
2007-03-16,0.92, -1.59, -8.63, 2.02, 1.60, 7.21, repro,
2007-03-17,-0.35, -1.49, -2.26, 1.97, 1.57, 7.03, repro,
2007-03-18,-0.10, -1.79, -5.88, 2.00, 1.57, 7.08, repro,
2007-03-19,-0.98, 0.29, -4.14, 2.03, 1.61, 7.20, repro,
2007-03-20,-1.71, 0.80, 1.07, 2.07, 1.60, 7.21, repro,
2007-03-21,-1.80, -2.02, -2.05, 2.12, 1.64, 7.49, repro,
2007-03-22,-0.40, -1.19, -2.48, 2.00, 1.58, 7.17, repro,
2007-03-23,-0.27, -1.96, 0.43, 1.98, 1.57, 7.07, repro,
2007-03-24,-0.28, -1.63, 1.94, 2.00, 1.62, 7.22, repro,
2007-03-25,-0.16, -0.36, -2.26, 2.00, 1.57, 7.09, repro,
2007-03-26,-0.92, -0.68, -5.95, 2.01, 1.58, 7.15, repro,
2007-03-27,-0.59, -1.69, -3.54, 2.07, 1.63, 7.35, repro,
2007-03-28,2.13, 0.27, -5.75, 2.06, 1.61, 7.29, repro,
2007-03-29,-1.13, 0.14, -4.89, 1.99, 1.58, 7.14, repro,
2007-03-30,-0.16, 0.34, -5.17, 1.98, 1.57, 7.04, repro,
2007-03-31,-0.93, -0.59, -1.89, 1.98, 1.58, 7.05, repro,
2007-04-01,-1.01, -0.52, -1.46, 1.98, 1.58, 7.05, repro,
2007-04-02,0.70, -0.71, -7.29, 2.00, 1.58, 7.12, repro,
2007-04-03,1.70, 0.54, -7.46, 2.06, 1.67, 7.44, repro,
2007-04-04,0.10, -0.10, -13.60, 2.08, 1.67, 7.40, repro,
2007-04-05,0.31, -0.75, -8.74, 2.12, 1.76, 7.54, repro,
2007-04-06,-0.85, -0.04, -7.03, 2.08, 1.69, 7.50, repro,
2007-04-07,-0.39, -1.12, -3.01, 2.04, 1.62, 7.27, repro,
2007-04-08,0.23, -2.11, -0.32, 2.02, 1.61, 7.17, repro,
2007-04-09,1.12, -0.19, -5.30, 2.01, 1.57, 7.09, repro,
2007-04-10,-0.04, -0.33, -1.87, 2.03, 1.60, 7.23, repro,
2007-04-11,-0.22, -0.63, 1.05, 2.00, 1.57, 7.03, repro,
2007-04-12,0.11, -0.80, 1.00, 1.99, 1.57, 7.05, repro,
2007-04-13,1.63, 0.08, -5.34, 2.00, 1.57, 7.09, repro,
2007-04-14,0.63, -0.31, -4.84, 2.03, 1.60, 7.25, repro,
2007-04-15,-0.10, -0.12, 0.67, 2.04, 1.63, 7.35, repro,
2007-04-16,0.54, -0.52, -4.06, 2.03, 1.63, 7.32, repro,
2007-04-17,0.61, -0.23, -8.28, 2.01, 1.57, 7.08, repro,
2007-04-18,-0.17, -0.11, -5.32, 2.00, 1.57, 7.08, repro,
2007-04-19,1.55, -1.64, -2.48, 1.99, 1.57, 7.08, repro,
2007-04-20,1.11, -1.33, -2.31, 1.99, 1.57, 7.10, repro,
2007-04-21,1.13, -0.99, -2.85, 2.01, 1.58, 7.16, repro,
2007-04-22,0.26, -1.60, 1.19, 2.00, 1.57, 7.11, repro,
2007-04-23,0.51, -1.18, -6.55, 2.02, 1.59, 7.16, repro,
2007-04-24,0.78, -0.26, -11.23, 2.04, 1.58, 7.25, repro,
2007-04-25,0.08, -0.09, -2.94, 2.03, 1.60, 7.26, repro,
2007-04-26,0.82, -1.37, -8.47, 2.02, 1.58, 7.15, repro,
2007-04-27,0.85, 0.18, -4.29, 2.00, 1.57, 7.15, repro,
2007-04-28,0.50, -0.84, -7.82, 2.01, 1.58, 7.17, repro,
2007-04-29,0.54, -0.50, -8.02, 2.03, 1.57, 7.17, repro,
2007-04-30,1.79, -1.36, -7.60, 2.01, 1.57, 7.16, repro,
2007-05-01,1.12, -0.88, -6.95, 2.00, 1.57, 7.11, repro,
2007-05-02,-0.55, -0.89, -9.34, 2.06, 1.58, 7.31, repro,
2007-05-03,1.39, -0.85, -2.21, 2.11, 1.60, 7.48, repro,
2007-05-04,-0.85, -0.22, -6.86, 2.02, 1.56, 7.17, repro,
2007-05-05,0.28, -0.38, -4.44, 2.05, 1.61, 7.32, repro,
2007-05-06,1.30, -0.53, -6.87, 2.01, 1.56, 7.11, repro,
2007-05-07,0.90, -1.13, -12.73, 2.02, 1.57, 7.15, repro,
2007-05-08,1.29, -0.16, -5.77, 2.03, 1.58, 7.22, repro,
2007-05-09,1.16, 0.25, -4.64, 2.02, 1.56, 7.17, repro,
2007-05-10,1.37, -1.05, -8.73, 2.17, 1.67, 7.73, repro,
2007-05-11,1.70, -0.57, -9.51, 2.15, 1.68, 7.69, repro,
2007-05-12,1.61, -1.57, -2.13, 2.03, 1.57, 7.19, repro,
2007-05-13,0.21, -0.69, -6.48, 2.07, 1.60, 7.30, repro,
2007-05-14,-0.33, -0.84, -5.24, 2.09, 1.61, 7.35, repro,
2007-05-15,0.94, -1.03, -3.13, 2.03, 1.57, 7.14, repro,
2007-05-16,1.41, -1.49, -6.78, 2.04, 1.57, 7.21, repro,
2007-05-17,0.60, -1.83, -3.94, 2.06, 1.61, 7.34, repro,
2007-05-18,1.63, -1.58, -3.56, 2.10, 1.64, 7.47, repro,
2007-05-19,0.47, -1.07, -8.80, 2.08, 1.62, 7.35, repro,
2007-05-20,0.05, -0.62, -6.26, 2.10, 1.63, 7.38, repro,
2007-05-21,1.37, -1.09, -4.77, 2.07, 1.59, 7.27, repro,
2007-05-22,-0.03, -0.63, 0.99, 2.07, 1.60, 7.31, repro,
2007-05-23,1.31, -1.24, -7.00, 2.06, 1.61, 7.31, repro,
2007-05-24,1.18, -0.77, -3.82, 2.15, 1.66, 7.58, repro,
2007-05-25,0.60, -0.91, -4.12, 2.03, 1.57, 7.14, repro,
2007-05-26,0.84, -1.78, -8.52, 2.06, 1.61, 7.28, repro,
2007-05-27,0.44, -1.90, -1.49, 2.06, 1.59, 7.23, repro,
2007-05-28,1.43, -1.08, -3.64, 2.10, 1.63, 7.37, repro,
2007-05-29,1.60, -0.81, -4.53, 2.07, 1.63, 7.29, repro,
2007-05-30,0.84, -1.21, -9.76, 2.12, 1.60, 7.37, repro,
2007-05-31,0.94, -1.42, -3.80, 2.09, 1.60, 7.25, repro,
2007-06-01,2.02, -1.48, -1.60, 2.05, 1.56, 7.13, repro,
2007-06-02,-0.10, -1.47, -5.55, 2.06, 1.59, 7.30, repro,
2007-06-03,0.88, -1.06, -4.66, 2.04, 1.58, 7.18, repro,
2007-06-04,0.95, -0.90, -6.26, 2.07, 1.59, 7.36, repro,
2007-06-05,1.35, -0.79, 0.23, 2.07, 1.60, 7.29, repro,
2007-06-06,1.32, -1.95, 2.59, 2.03, 1.56, 7.11, repro,
2007-06-07,1.91, -2.13, 0.30, 2.06, 1.62, 7.28, repro,
2007-06-08,0.36, -1.54, -3.86, 2.05, 1.59, 7.26, repro,
2007-06-09,0.55, -0.88, -9.67, 2.04, 1.60, 7.26, repro,
2007-06-10,1.66, -0.93, -4.62, 2.04, 1.58, 7.20, repro,
2007-06-11,0.78, -1.44, -2.79, 2.07, 1.66, 7.32, repro,
2007-06-12,1.68, -0.28, -4.09, 2.06, 1.61, 7.33, repro,
2007-06-13,1.22, -0.56, -4.95, 2.10, 1.63, 7.38, repro,
2007-06-14,0.42, -0.67, -5.55, 2.13, 1.69, 7.49, repro,
2007-06-15,0.58, -2.21, 0.33, 2.03, 1.58, 7.17, repro,
2007-06-16,0.82, -1.72, -7.30, 2.04, 1.62, 7.23, repro,
2007-06-17,2.08, -0.60, -5.76, 2.02, 1.56, 7.08, repro,
2007-06-18,2.78, -1.55, -0.31, 2.04, 1.56, 7.15, repro,
2007-06-19,1.73, -1.17, -6.15, 2.04, 1.57, 7.13, repro,
2007-06-20,1.89, 0.35, -12.45, 2.04, 1.58, 7.15, repro,
2007-06-21,1.65, -0.86, -8.06, 2.04, 1.63, 7.29, repro,
2007-06-22,1.53, -0.90, -5.25, 2.01, 1.56, 7.08, repro,
2007-06-23,0.92, -1.77, -5.88, 2.03, 1.56, 7.11, repro,
2007-06-24,1.42, -1.84, -7.66, 2.05, 1.61, 7.37, repro,
2007-06-25,1.53, -1.50, -8.19, 2.08, 1.62, 7.36, repro,
2007-06-26,1.31, -0.67, -12.20, 2.03, 1.56, 7.12, repro,
2007-06-27,1.75, -0.30, -5.96, 2.04, 1.62, 7.29, repro,
2007-06-28,1.98, 0.08, -8.98, 2.01, 1.55, 7.07, repro,
2007-06-29,1.68, -0.75, -5.95, 2.02, 1.56, 7.12, repro,
2007-06-30,1.22, -1.46, -7.55, 2.02, 1.57, 7.15, repro,
2007-07-01,2.09, -1.15, -3.03, 2.04, 1.57, 7.23, repro,
2007-07-02,1.64, -0.43, -3.30, 2.01, 1.56, 7.11, repro,
2007-07-03,2.76, 0.19, -6.26, 2.00, 1.55, 7.06, repro,
2007-07-04,2.53, -0.78, -7.69, 2.01, 1.56, 7.09, repro,
2007-07-05,0.98, -1.86, -2.69, 2.03, 1.55, 7.11, repro,
2007-07-06,1.18, 0.05, -3.07, 2.05, 1.58, 7.24, repro,
2007-07-07,2.55, 0.26, -6.70, 2.02, 1.56, 7.14, repro,
2007-07-08,-0.41, -0.02, 0.85, 2.01, 1.56, 7.11, repro,
2007-07-09,1.53, -0.04, -5.77, 2.00, 1.55, 7.06, repro,
2007-07-10,1.85, -1.13, -5.17, 2.02, 1.56, 7.09, repro,
2007-07-11,1.96, 0.04, -5.70, 2.04, 1.58, 7.21, repro,
2007-07-12,0.96, 1.04, -1.15, 2.05, 1.59, 7.27, repro,
2007-07-13,1.55, -0.74, -4.81, 2.06, 1.63, 7.35, repro,
2007-07-14,1.16, -0.41, -5.83, 2.04, 1.61, 7.22, repro,
2007-07-15,1.45, -0.28, -4.84, 2.01, 1.55, 7.05, repro,
2007-07-16,2.25, -1.46, -2.86, 2.02, 1.56, 7.13, repro,
2007-07-17,1.91, -1.79, 1.05, 2.10, 1.68, 7.44, repro,
2007-07-18,3.45, 0.01, -8.82, 2.10, 1.61, 7.42, repro,
2007-07-19,1.21, -0.81, -3.72, 2.02, 1.56, 7.15, repro,
2007-07-20,2.97, -0.51, -3.81, 2.04, 1.58, 7.20, repro,
2007-07-21,1.20, -0.86, 1.86, 2.03, 1.56, 7.11, repro,
2007-07-22,1.97, -0.63, -0.50, 2.04, 1.58, 7.21, repro,
2007-07-23,1.85, -0.82, -5.36, 2.05, 1.58, 7.26, repro,
2007-07-24,1.70, 0.32, 8.26, 2.03, 1.58, 7.20, repro,
2007-07-25,2.38, -0.58, -5.41, 2.02, 1.56, 7.12, repro,
2007-07-26,1.35, -0.76, 0.37, 2.02, 1.56, 7.13, repro,
2007-07-27,1.85, 0.43, -0.80, 2.03, 1.58, 7.16, repro,
2007-07-28,1.14, -0.27, -2.20, 2.03, 1.57, 7.18, repro,
2007-07-29,-0.38, -0.45, 1.08, 2.03, 1.58, 7.19, repro,
2007-07-30,1.17, 0.23, 0.53, 2.09, 1.69, 7.44, repro,
2007-07-31,1.18, 0.06, -0.49, 2.03, 1.57, 7.18, repro,
2007-08-01,1.47, -0.00, 5.31, 2.03, 1.56, 7.12, repro,
2007-08-02,1.24, -0.99, 10.07, 2.02, 1.57, 7.10, repro,
2007-08-03,2.37, -0.68, 0.47, 2.03, 1.56, 7.16, repro,
2007-08-04,1.90, -0.71, 4.72, 2.02, 1.56, 7.10, repro,
2007-08-05,1.28, -0.21, -0.14, 2.03, 1.57, 7.17, repro,
2007-08-06,2.12, -1.16, 4.31, 2.04, 1.60, 7.23, repro,
2007-08-07,1.60, -0.48, 6.14, 2.06, 1.61, 7.31, repro,
2007-08-08,-0.20, -0.16, -1.19, 2.02, 1.57, 7.17, repro,
2007-08-09,2.21, -0.93, 2.68, 2.00, 1.56, 7.10, repro,
2007-08-10,1.64, -0.23, 3.03, 2.01, 1.56, 7.06, repro,
2007-08-11,1.59, 0.22, -0.46, 2.01, 1.55, 7.06, repro,
2007-08-12,1.37, -0.47, 0.97, 2.03, 1.57, 7.14, repro,
2007-08-13,2.32, -0.70, 1.17, 2.03, 1.57, 7.15, repro,
2007-08-14,1.68, -0.36, -0.47, 2.13, 1.69, 7.51, repro,
2007-08-15,1.02, -1.08, 0.21, 2.11, 1.69, 7.41, repro,
2007-08-16,2.22, -1.77, -2.21, 2.09, 1.62, 7.34, repro,
2007-08-17,0.07, -2.75, -1.65, 2.11, 1.63, 7.39, repro,
2007-08-18,1.46, -1.34, 1.60, 2.16, 1.67, 7.66, repro,
2007-08-19,2.54, -1.03, 1.05, 2.14, 1.67, 7.66, repro,
2007-08-20,1.41, -1.18, -2.01, 2.10, 1.63, 7.44, repro,
2007-08-21,2.32, -0.83, 1.54, 2.09, 1.61, 7.34, repro,
2007-08-22,0.79, -2.45, -5.24, 2.13, 1.62, 7.43, repro,
2007-08-23,1.62, -1.84, 5.10, 2.08, 1.58, 7.25, repro,